QPF
0.00 0.00 0.00 0.00 0.00 0.00 0.00 0.00 0.00 0.00 0.00 0.00 0.00 0.00 0.00 0.00 0.00 0.03 0.01 0.00 0.00 0.00 0.00 0.00 0.00 0.00 0.00 0.00 0.00 0.00 0.00 0.00 0.01 0.02 0.01 0.01 0.01 0.02 0.04 0.05 0.05 0.07 0.07 0.05 0.06 0.09 0.08 0.07 0.04
0.00 0.00 0.00 0.00 0.00 0.00 0.00 0.00 0.00 0.00 0.02 0.01 0.00 0.00 0.00 0.00 0.00 0.00 0.00 0.00 0.00 0.00 0.00 0.00 0.00 0.00 0.00 0.00 0.00 0.00 0.00 0.01 0.02 0.04 0.04 0.02 0.02 0.02 0.02 0.02 0.02 0.03 0.02 0.02 0.03 0.05 0.04 0.03 0.01
0.00 0.00 0.00 0.00 0.00 0.00 0.00 0.00 0.00 0.00 0.00 0.00 0.00 0.00 0.00 0.00 0.00 0.00 0.00 0.00 0.00 0.01 0.01 0.00 0.00 0.00 0.00 0.00 0.00 0.01 0.01 0.01 0.03 0.05 0.07 0.04 0.01 0.01 0.01 0.01 0.02 0.04 0.04 0.04 0.05 0.06 0.03 0.02 0.02
0.00 0.00 0.00 0.00 0.00 0.00 0.00 0.00 0.00 0.00 0.00 0.00 0.00 0.00 0.00 0.00 0.00 0.00 0.00 0.00 0.00 0.00 0.00 0.00 0.01 0.01 0.00 0.00 0.00 0.01 0.03 0.02 0.02 0.03 0.05 0.06 0.03 0.01 0.02 0.04 0.04 0.05 0.05 0.07 0.12 0.11 0.09 0.05 0.03
0.00 0.00 0.00 0.00 0.00 0.00 0.00 0.00 0.00 0.00 0.00 0.00 0.00 0.00 0.00 0.00 0.00 0.00 0.00 0.00 0.00 0.00 0.00 0.00 0.00 0.01 0.01 0.01 0.01 0.02 0.02 0.01 0.02 0.03 0.05 0.08 0.04 0.01 0.03 0.06 0.07 0.08 0.08 0.07 0.06 0.04 0.05 0.05 0.03
0.00 0.00 0.00 0.00 0.00 0.00 0.00 0.00 0.00 0.00 0.00 0.00 0.00 0.00 0.00 0.00 0.00 0.00 0.00 0.00 0.00 0.00 0.00 0.00 0.00 0.01 0.01 0.01 0.02 0.03 0.01 0.01 0.02 0.03 0.07 0.09 0.04 0.02 0.03 0.06 0.11 0.17 0.15 0.08 0.04 0.03 0.02 0.01 0.01
0.00 0.00 0.00 0.00 0.00 0.00 0.00 0.00 0.00 0.00 0.00 0.00 0.00 0.00 0.00 0.00 0.00 0.00 0.00 0.00 0.00 0.00 0.01 0.01 0.00 0.01 0.02 0.01 0.01 0.02 0.01 0.01 0.02 0.02 0.05 0.07 0.06 0.03 0.03 0.06 0.10 0.11 0.08 0.08 0.07 0.05 0.03 0.02 0.01
0.00 0.00 0.00 0.00 0.00 0.00 0.00 0.00 0.00 0.00 0.00 0.00 0.00 0.00 0.00 0.00 0.00 0.00 0.00 0.00 0.00 0.03 0.11 0.10 0.03 0.02 0.01 0.00 0.00 0.00 0.00 0.00 0.00 0.00 0.02 0.03 0.05 0.05 0.05 0.07 0.04 0.02 0.01 0.02 0.02 0.02 0.02 0.01 0.01
0.00 0.00 0.00 0.00 0.00 0.00 0.00 0.00 0.00 0.00 0.00 0.00 0.00 0.00 0.00 0.00 0.00 0.00 0.00 0.00 0.01 0.05 0.11 0.05 0.02 0.02 0.00 0.00 0.00 0.00 0.00 0.00 0.01 0.01 0.01 0.03 0.07 0.07 0.07 0.03 0.02 0.01 0.01 0.00 0.00 0.00 0.01 0.01 0.00
0.00 0.00 0.00 0.00 0.00 0.00 0.00 0.00 0.00 0.00 0.00 0.00 0.00 0.00 0.00 0.00 0.00 0.00 0.01 0.07 0.09 0.05 0.04 0.05 0.02 0.00 0.00 0.00 0.00 0.01 0.01 0.01 0.02 0.02 0.02 0.06 0.09 0.09 0.06 0.02 0.00 0.00 0.00 0.00 0.00 0.00 0.00 0.00 0.00
0.00 0.00 0.00 0.00 0.00 0.00 0.00 0.00 0.00 0.00 0.00 0.00 0.00 0.00 0.01 0.01 0.00 0.00 0.01 0.09 0.15 0.05 0.01 0.01 0.00 0.00 0.00 0.00 0.00 0.00 0.00 0.01 0.01 0.02 0.03 0.05 0.05 0.03 0.01 0.00 0.00 0.00 0.00 0.00 0.00 0.00 0.00 0.00 0.00
0.00 0.00 0.00 0.00 0.00 0.00 0.00 0.00 0.00 0.00 0.00 0.00 0.00 0.00 0.01 0.01 0.00 0.00 0.01 0.02 0.03 0.01 0.00 0.00 0.00 0.00 0.00 0.00 0.00 0.00 0.00 0.00 0.01 0.02 0.02 0.02 0.02 0.01 0.00 0.00 0.00 0.00 0.00 0.00 0.00 0.00 0.00 0.00 0.00
0.00 0.00 0.00 0.00 0.00 0.00 0.00 0.00 0.00 0.00 0.00 0.00 0.00 0.00 0.00 0.00 0.00 0.00 0.01 0.01 0.00 0.00 0.00 0.00 0.00 0.00 0.00 0.00 0.00 0.00 0.00 0.00 0.00 0.00 0.00 0.00 0.00 0.00 0.00 0.00 0.00 0.00 0.00 0.00 0.00 0.00 0.00 0.00 0.00
0.00 0.00 0.00 0.00 0.00 0.00 0.00 0.00 0.00 0.00 0.00 0.00 0.00 0.00 0.00 0.00 0.01 0.03 0.02 0.01 0.00 0.00 0.00 0.00 0.00 0.00 0.00 0.00 0.00 0.00 0.00 0.00 0.00 0.00 0.00 0.00 0.00 0.00 0.00 0.00 0.00 0.00 0.00 0.00 0.00 0.00 0.00 0.00 0.00
0.00 0.00 0.00 0.00 0.00 0.00 0.00 0.00 0.00 0.00 0.00 0.00 0.00 0.00 0.00 0.00 0.01 0.01 0.01 0.00 0.00 0.00 0.01 0.00 0.00 0.00 0.00 0.00 0.00 0.00 0.00 0.00 0.00 0.00 0.00 0.00 0.00 0.00 0.00 0.00 0.00 0.00 0.00 0.00 0.00 0.00 0.00 0.00 0.00
0.00 0.00 0.00 0.00 0.00 0.00 0.00 0.00 0.00 0.00 0.00 0.00 0.00 0.00 0.00 0.00 0.00 0.00 0.00 0.00 0.00 0.02 0.08 0.05 0.00 0.00 0.00 0.00 0.00 0.00 0.00 0.00 0.00 0.00 0.00 0.00 0.00 0.00 0.00 0.00 0.00 0.00 0.00 0.00 0.00 0.00 0.00 0.00 0.00
0.00 0.00 0.00 0.00 0.00 0.00 0.00 0.00 0.00 0.00 0.00 0.00 0.00 0.00 0.00 0.00 0.00 0.01 0.03 0.05 0.05 0.19 0.43 0.28 0.05 0.01 0.00 0.00 0.00 0.00 0.00 0.00 0.00 0.00 0.00 0.00 0.00 0.00 0.00 0.00 0.00 0.00 0.00 0.00 0.00 0.00 0.01 0.01 0.00
0.00 0.00 0.00 0.00 0.00 0.00 0.00 0.00 0.00 0.00 0.00 0.00 0.00 0.00 0.00 0.00 0.01 0.03 0.11 0.16 0.16 0.60 1.02 0.64 0.17 0.05 0.01 0.00 0.00 0.00 0.00 0.00 0.00 0.00 0.00 0.00 0.00 0.00 0.00 0.00 0.01 0.01 0.02 0.02 0.02 0.03 0.02 0.01 0.00
0.00 0.00 0.00 0.00 0.00 0.00 0.00 0.00 0.00 0.00 0.00 0.00 0.00 0.00 0.00 0.00 0.00 0.02 0.08 0.13 0.16 0.47 0.67 0.44 0.20 0.09 0.03 0.04 0.05 0.03 0.01 0.00 0.00 0.00 0.00 0.01 0.00 0.01 0.02 0.01 0.03 0.05 0.05 0.04 0.02 0.02 0.01 0.01 0.00
0.00 0.00 0.00 0.00 0.00 0.00 0.00 0.00 0.00 0.00 0.00 0.00 0.00 0.00 0.00 0.00 0.00 0.01 0.01 0.02 0.05 0.13 0.21 0.22 0.20 0.19 0.08 0.06 0.07 0.06 0.04 0.01 0.02 0.05 0.10 0.07 0.02 0.01 0.02 0.03 0.01 0.03 0.02 0.02 0.02 0.02 0.01 0.01 0.00
0.00 0.00 0.00 0.00 0.00 0.00 0.00 0.00 0.00 0.00 0.00 0.00 0.00 0.00 0.00 0.00 0.00 0.00 0.00 0.00 0.01 0.04 0.09 0.13 0.13 0.15 0.08 0.04 0.04 0.07 0.10 0.13 0.18 0.25 0.28 0.20 0.09 0.02 0.01 0.01 0.00 0.01 0.00 0.01 0.02 0.02 0.03 0.02 0.01
0.00 0.00 0.00 0.00 0.00 0.00 0.00 0.00 0.00 0.00 0.00 0.00 0.00 0.00 0.00 0.00 0.00 0.00 0.00 0.00 0.00 0.01 0.02 0.03 0.06 0.08 0.08 0.06 0.06 0.11 0.18 0.23 0.24 0.18 0.15 0.09 0.03 0.01 0.00 0.00 0.01 0.00 0.00 0.01 0.01 0.01 0.02 0.02 0.01
0.00 0.00 0.00 0.00 0.00 0.00 0.00 0.00 0.00 0.00 0.00 0.00 0.00 0.00 0.00 0.00 0.00 0.00 0.00 0.00 0.00 0.00 0.01 0.02 0.02 0.03 0.03 0.04 0.06 0.10 0.09 0.07 0.04 0.03 0.01 0.01 0.00 0.00 0.00 0.00 0.01 0.01 0.01 0.01 0.01 0.01 0.01 0.01 0.01
0.00 0.00 0.00 0.00 0.00 0.00 0.00 0.00 0.00 0.00 0.00 0.00 0.00 0.00 0.00 0.00 0.00 0.00 0.00 0.00 0.00 0.00 0.01 0.01 0.01 0.01 0.01 0.01 0.01 0.01 0.01 0.01 0.00 0.00 0.00 0.00 0.00 0.00 0.00 0.00 0.00 0.01 0.01 0.01 0.01 0.01 0.00 0.01 0.01
0.00 0.00 0.00 0.00 0.00 0.00 0.00 0.00 0.00 0.00 0.00 0.00 0.00 0.00 0.00 0.00 0.00 0.00 0.00 0.00 0.00 0.00 0.00 0.00 0.00 0.00 0.00 0.00 0.00 0.00 0.00 0.00 0.00 0.00 0.00 0.00 0.00 0.00 0.00 0.00 0.00 0.00 0.01 0.00 0.00 0.00 0.01 0.01 0.01
0.00 0.00 0.00 0.00 0.00 0.00 0.00 0.00 0.00 0.00 0.00 0.00 0.00 0.00 0.00 0.00 0.00 0.00 0.00 0.00 0.00 0.00 0.00 0.00 0.00 0.00 0.00 0.00 0.00 0.00 0.00 0.00 0.00 0.00 0.00 0.00 0.00 0.00 0.00 0.00 0.00 0.00 0.00 0.00 0.01 0.01 0.01 0.01 0.01
0.00 0.00 0.00 0.00 0.00 0.00 0.00 0.00 0.00 0.00 0.00 0.00 0.00 0.00 0.00 0.00 0.00 0.00 0.00 0.00 0.00 0.00 0.00 0.00 0.00 0.00 0.00 0.00 0.00 0.00 0.00 0.00 0.00 0.00 0.00 0.00 0.00 0.00 0.00 0.00 0.01 0.01 0.02 0.02 0.02 0.02 0.02 0.02 0.02
0.00 0.00 0.00 0.00 0.00 0.00 0.00 0.00 0.00 0.00 0.00 0.00 0.00 0.00 0.00 0.00 0.00 0.00 0.00 0.00 0.00 0.00 0.00 0.00 0.00 0.00 0.00 0.00 0.00 0.00 0.00 0.00 0.00 0.00 0.00 0.00 0.01 0.01 0.01 0.02 0.02 0.02 0.02 0.02 0.02 0.02 0.03 0.03 0.03
0.00 0.00 0.00 0.00 0.00 0.00 0.00 0.00 0.00 0.00 0.00 0.00 0.00 0.00 0.00 0.00 0.00 0.00 0.00 0.00 0.00 0.00 0.00 0.00 0.00 0.00 0.00 0.00 0.00 0.00 0.00 0.00 0.00 0.00 0.01 0.01 0.01 0.02 0.02 0.03 0.03 0.02 0.02 0.02 0.03 0.04 0.04 0.03 0.03
0.00 0.00 0.00 0.00 0.00 0.00 0.00 0.00 0.00 0.00 0.01 0.02 0.01 0.00 0.00 0.00 0.00 0.00 0.00 0.00 0.00 0.00 0.00 0.00 0.00 0.00 0.00 0.00 0.00 0.00 0.00 0.01 0.01 0.01 0.01 0.02 0.02 0.02 0.03 0.03 0.03 0.02 0.02 0.03 0.04 0.04 0.03 0.03 0.02
MSLP
1009.49 1009.89 1010.25 1010.47 1010.47 1010.21 1009.73 1009.10 1008.47 1007.96 1007.69 1007.71 1008.03 1008.56 1009.22 1009.86 1010.39 1010.74 1010.90 1010.92 1010.89 1010.89 1010.99 1011.22 1011.59 1012.02 1012.46 1012.83 1013.08 1013.22 1013.26 1013.27 1013.31 1013.43 1013.65 1013.96 1014.31 1014.67 1014.97 1015.19 1015.32 1015.38 1015.41 1015.44 1015.52 1015.63 1015.77 1015.90 1015.98
1009.78 1010.20 1010.52 1010.63 1010.48 1010.06 1009.43 1008.70 1008.00 1007.48 1007.23 1007.30 1007.66 1008.24 1008.92 1009.57 1010.10 1010.45 1010.63 1010.69 1010.72 1010.80 1011.00 1011.33 1011.77 1012.26 1012.72 1013.08 1013.32 1013.44 1013.46 1013.47 1013.51 1013.64 1013.87 1014.18 1014.52 1014.84 1015.09 1015.24 1015.31 1015.33 1015.33 1015.36 1015.44 1015.57 1015.73 1015.87 1015.96
1010.05 1010.46 1010.71 1010.71 1010.42 1009.86 1009.12 1008.32 1007.60 1007.10 1006.90 1007.03 1007.43 1008.03 1008.71 1009.33 1009.83 1010.15 1010.32 1010.40 1010.49 1010.65 1010.94 1011.37 1011.89 1012.43 1012.92 1013.29 1013.53 1013.64 1013.67 1013.68 1013.74 1013.88 1014.11 1014.41 1014.72 1014.99 1015.19 1015.28 1015.30 1015.28 1015.26 1015.30 1015.40 1015.55 1015.73 1015.89 1015.98
1010.21 1010.58 1010.74 1010.63 1010.23 1009.58 1008.80 1007.99 1007.31 1006.88 1006.76 1006.95 1007.40 1008.00 1008.64 1009.21 1009.64 1009.91 1010.05 1010.15 1010.27 1010.50 1010.87 1011.37 1011.96 1012.55 1013.07 1013.46 1013.70 1013.81 1013.85 1013.88 1013.95 1014.10 1014.33 1014.62 1014.90 1015.13 1015.28 1015.33 1015.32 1015.28 1015.27 1015.32 1015.44 1015.63 1015.82 1015.98 1016.06
1010.21 1010.50 1010.57 1010.36 1009.88 1009.20 1008.43 1007.69 1007.12 1006.81 1006.80 1007.07 1007.56 1008.15 1008.74 1009.23 1009.58 1009.77 1009.87 1009.96 1010.11 1010.39 1010.82 1011.38 1012.01 1012.64 1013.17 1013.56 1013.80 1013.92 1013.97 1014.01 1014.10 1014.27 1014.51 1014.78 1015.04 1015.24 1015.36 1015.39 1015.37 1015.34 1015.35 1015.43 1015.58 1015.78 1015.98 1016.13 1016.18
1010.01 1010.20 1010.16 1009.87 1009.37 1008.71 1008.02 1007.41 1006.99 1006.83 1006.96 1007.32 1007.84 1008.42 1008.95 1009.35 1009.60 1009.72 1009.77 1009.84 1010.00 1010.32 1010.79 1011.39 1012.05 1012.68 1013.21 1013.60 1013.83 1013.95 1014.00 1014.06 1014.17 1014.35 1014.59 1014.86 1015.11 1015.30 1015.41 1015.44 1015.43 1015.43 1015.47 1015.58 1015.76 1015.97 1016.16 1016.27 1016.28
1009.64 1009.72 1009.58 1009.24 1008.73 1008.14 1007.57 1007.12 1006.88 1006.89 1007.15 1007.60 1008.14 1008.69 1009.15 1009.47 1009.63 1009.68 1009.69 1009.75 1009.93 1010.27 1010.77 1011.38 1012.04 1012.67 1013.18 1013.54 1013.76 1013.87 1013.93 1014.00 1014.13 1014.32 1014.58 1014.85 1015.10 1015.29 1015.41 1015.46 1015.48 1015.50 1015.58 1015.72 1015.90 1016.11 1016.27 1016.35 1016.31
1009.20 1009.15 1008.92 1008.54 1008.06 1007.56 1007.12 1006.84 1006.77 1006.93 1007.29 1007.79 1008.34 1008.85 1009.24 1009.48 1009.57 1009.58 1009.57 1009.63 1009.83 1010.20 1010.71 1011.33 1011.99 1012.58 1013.06 1013.40 1013.60 1013.70 1013.76 1013.85 1013.99 1014.21 1014.48 1014.76 1015.02 1015.22 1015.35 1015.42 1015.46 1015.52 1015.62 1015.77 1015.95 1016.14 1016.27 1016.30 1016.21
1008.77 1008.61 1008.30 1007.90 1007.45 1007.04 1006.73 1006.59 1006.65 1006.91 1007.33 1007.84 1008.36 1008.80 1009.12 1009.30 1009.35 1009.34 1009.34 1009.43 1009.67 1010.06 1010.60 1011.23 1011.86 1012.43 1012.88 1013.18 1013.36 1013.46 1013.53 1013.63 1013.79 1014.03 1014.32 1014.62 1014.89 1015.10 1015.24 1015.33 1015.39 1015.45 1015.56 1015.71 1015.88 1016.03 1016.13 1016.12 1015.99
1008.45 1008.20 1007.84 1007.43 1007.02 1006.67 1006.45 1006.40 1006.53 1006.83 1007.24 1007.71 1008.16 1008.53 1008.78 1008.90 1008.94 1008.94 1008.99 1009.14 1009.43 1009.88 1010.44 1011.08 1011.69 1012.23 1012.65 1012.93 1013.09 1013.19 1013.27 1013.39 1013.58 1013.84 1014.15 1014.46 1014.74 1014.96 1015.11 1015.20 1015.26 1015.33 1015.42 1015.55 1015.69 1015.81 1015.87 1015.83 1015.68
1008.29 1007.99 1007.60 1007.19 1006.80 1006.50 1006.33 1006.31 1006.44 1006.71 1007.06 1007.44 1007.79 1008.06 1008.24 1008.34 1008.39 1008.44 1008.55 1008.79 1009.16 1009.67 1010.27 1010.92 1011.53 1012.04 1012.44 1012.70 1012.85 1012.95 1013.04 1013.18 1013.39 1013.67 1014.00 1014.32 1014.61 1014.84 1014.99 1015.07 1015.12 1015.17 1015.23 1015.32 1015.43 1015.52 1015.55 1015.49 1015.34
1008.31 1007.98 1007.59 1007.19 1006.83 1006.55 1006.39 1006.35 1006.43 1006.60 1006.84 1007.09 1007.32 1007.50 1007.63 1007.71 1007.79 1007.92 1008.13 1008.46 1008.93 1009.51 1010.16 1010.82 1011.43 1011.93 1012.30 1012.55 1012.69 1012.80 1012.90 1013.05 1013.28 1013.57 1013.90 1014.24 1014.53 1014.75 1014.89 1014.97 1015.00 1015.02 1015.05 1015.11 1015.17 1015.23 1015.24 1015.18 1015.05
1008.46 1008.14 1007.77 1007.39 1007.05 1006.78 1006.60 1006.51 1006.50 1006.55 1006.65 1006.77 1006.88 1006.97 1007.06 1007.16 1007.29 1007.51 1007.83 1008.28 1008.84 1009.49 1010.18 1010.86 1011.46 1011.95 1012.30 1012.53 1012.67 1012.77 1012.88 1013.03 1013.26 1013.55 1013.88 1014.21 1014.49 1014.71 1014.85 1014.92 1014.93 1014.92 1014.92 1014.94 1014.97 1015.00 1015.01 1014.96 1014.85
1008.68 1008.39 1008.05 1007.71 1007.40 1007.13 1006.92 1006.76 1006.66 1006.60 1006.56 1006.56 1006.56 1006.60 1006.68 1006.81 1007.03 1007.34 1007.78 1008.32 1008.97 1009.68 1010.40 1011.09 1011.68 1012.15 1012.48 1012.70 1012.82 1012.90 1012.99 1013.12 1013.33 1013.60 1013.91 1014.22 1014.50 1014.72 1014.86 1014.92 1014.92 1014.90 1014.87 1014.86 1014.87 1014.88 1014.88 1014.84 1014.75
1008.90 1008.64 1008.34 1008.04 1007.76 1007.51 1007.29 1007.09 1006.91 1006.75 1006.62 1006.52 1006.47 1006.48 1006.58 1006.77 1007.07 1007.49 1008.02 1008.66 1009.37 1010.12 1010.85 1011.53 1012.10 1012.55 1012.85 1013.03 1013.12 1013.17 1013.23 1013.32 1013.49 1013.71 1013.99 1014.27 1014.54 1014.75 1014.88 1014.95 1014.96 1014.93 1014.89 1014.87 1014.86 1014.86 1014.85 1014.82 1014.75
1009.04 1008.81 1008.56 1008.32 1008.09 1007.87 1007.65 1007.44 1007.22 1007.01 1006.83 1006.69 1006.62 1006.65 1006.80 1007.06 1007.45 1007.96 1008.57 1009.27 1010.02 1010.78 1011.50 1012.15 1012.69 1013.09 1013.36 1013.51 1013.56 1013.56 1013.57 1013.61 1013.71 1013.88 1014.09 1014.34 1014.58 1014.78 1014.92 1015.00 1015.03 1015.01 1014.98 1014.95 1014.92 1014.91 1014.89 1014.86 1014.79
1009.08 1008.88 1008.67 1008.49 1008.33 1008.16 1007.99 1007.80 1007.58 1007.37 1007.18 1007.05 1007.02 1007.10 1007.31 1007.65 1008.13 1008.71 1009.38 1010.11 1010.86 1011.60 1012.29 1012.89 1013.38 1013.74 1013.96 1014.07 1014.08 1014.04 1013.99 1013.96 1013.99 1014.08 1014.23 1014.42 1014.63 1014.82 1014.97 1015.06 1015.11 1015.12 1015.10 1015.07 1015.04 1015.01 1014.98 1014.93 1014.84
1009.01 1008.82 1008.68 1008.57 1008.49 1008.41 1008.30 1008.16 1007.99 1007.81 1007.66 1007.57 1007.60 1007.75 1008.04 1008.47 1009.02 1009.66 1010.36 1011.08 1011.81 1012.49 1013.12 1013.66 1014.10 1014.41 1014.60 1014.67 1014.65 1014.57 1014.47 1014.37 1014.33 1014.34 1014.42 1014.55 1014.71 1014.88 1015.03 1015.14 1015.21 1015.24 1015.24 1015.22 1015.19 1015.15 1015.10 1015.02 1014.90
1008.83 1008.68 1008.60 1008.59 1008.61 1008.63 1008.61 1008.54 1008.43 1008.31 1008.22 1008.21 1008.30 1008.54 1008.92 1009.42 1010.02 1010.69 1011.39 1012.09 1012.76 1013.37 1013.92 1014.39 1014.77 1015.04 1015.20 1015.25 1015.22 1015.12 1014.99 1014.85 1014.74 1014.68 1014.68 1014.74 1014.86 1014.99 1015.13 1015.25 1015.34 1015.39 1015.40 1015.39 1015.36 1015.31 1015.23 1015.12 1014.96
1008.58 1008.49 1008.51 1008.60 1008.74 1008.86 1008.94 1008.96 1008.92 1008.86 1008.84 1008.89 1009.06 1009.37 1009.82 1010.38 1011.03 1011.71 1012.39 1013.04 1013.64 1014.17 1014.63 1015.03 1015.34 1015.58 1015.73 1015.79 1015.77 1015.68 1015.54 1015.38 1015.23 1015.11 1015.05 1015.04 1015.10 1015.19 1015.30 1015.41 1015.50 1015.57 1015.59 1015.59 1015.55 1015.48 1015.38 1015.24 1015.05
1008.29 1008.29 1008.43 1008.66 1008.92 1009.16 1009.33 1009.42 1009.44 1009.43 1009.45 1009.56 1009.79 1010.16 1010.67 1011.28 1011.95 1012.63 1013.28 1013.88 1014.39 1014.84 1015.22 1015.54 1015.80 1016.02 1016.17 1016.26 1016.28 1016.23 1016.11 1015.96 1015.80 1015.64 1015.53 1015.47 1015.45 1015.49 1015.56 1015.64 1015.72 1015.78 1015.81 1015.80 1015.76 1015.69 1015.57 1015.40 1015.19
1007.99 1008.13 1008.41 1008.78 1009.17 1009.51 1009.76 1009.90 1009.96 1009.99 1010.04 1010.18 1010.45 1010.86 1011.41 1012.05 1012.74 1013.42 1014.04 1014.58 1015.02 1015.39 1015.69 1015.95 1016.17 1016.37 1016.55 1016.68 1016.75 1016.76 1016.70 1016.59 1016.43 1016.26 1016.11 1015.99 1015.91 1015.88 1015.90 1015.93 1015.98 1016.02 1016.04 1016.03 1015.98 1015.90 1015.77 1015.59 1015.37
1007.70 1008.00 1008.44 1008.96 1009.47 1009.89 1010.20 1010.38 1010.45 1010.48 1010.54 1010.69 1010.98 1011.42 1012.00 1012.67 1013.38 1014.06 1014.66 1015.16 1015.55 1015.85 1016.08 1016.29 1016.48 1016.68 1016.87 1017.05 1017.19 1017.27 1017.28 1017.21 1017.09 1016.92 1016.74 1016.57 1016.43 1016.33 1016.27 1016.25 1016.25 1016.26 1016.26 1016.24 1016.18 1016.09 1015.96 1015.78 1015.56
1007.44 1007.92 1008.52 1009.16 1009.77 1010.26 1010.61 1010.79 1010.86 1010.88 1010.93 1011.08 1011.37 1011.83 1012.44 1013.14 1013.87 1014.56 1015.16 1015.64 1015.99 1016.25 1016.44 1016.60 1016.77 1016.97 1017.18 1017.40 1017.60 1017.75 1017.82 1017.81 1017.71 1017.55 1017.35 1017.14 1016.94 1016.77 1016.64 1016.56 1016.51 1016.47 1016.44 1016.39 1016.33 1016.23 1016.09 1015.92 1015.70
1007.24 1007.86 1008.60 1009.35 1010.02 1010.56 1010.91 1011.08 1011.13 1011.13 1011.16 1011.31 1011.61 1012.09 1012.72 1013.46 1014.22 1014.94 1015.56 1016.04 1016.39 1016.63 1016.79 1016.93 1017.08 1017.27 1017.49 1017.74 1017.98 1018.17 1018.30 1018.32 1018.25 1018.10 1017.88 1017.63 1017.38 1017.15 1016.95 1016.81 1016.70 1016.62 1016.55 1016.48 1016.39 1016.28 1016.13 1015.96 1015.75
1007.10 1007.83 1008.65 1009.46 1010.17 1010.71 1011.05 1011.21 1011.24 1011.22 1011.24 1011.39 1011.71 1012.21 1012.88 1013.65 1014.46 1015.22 1015.87 1016.39 1016.75 1017.00 1017.16 1017.28 1017.42 1017.60 1017.82 1018.07 1018.32 1018.54 1018.68 1018.73 1018.67 1018.52 1018.28 1018.00 1017.71 1017.43 1017.18 1016.98 1016.82 1016.70 1016.59 1016.48 1016.37 1016.23 1016.06 1015.87 1015.65
1007.01 1007.80 1008.64 1009.46 1010.16 1010.68 1011.01 1011.15 1011.17 1011.15 1011.18 1011.34 1011.69 1012.23 1012.94 1013.76 1014.62 1015.43 1016.13 1016.68 1017.08 1017.35 1017.53 1017.66 1017.79 1017.95 1018.15 1018.39 1018.62 1018.83 1018.97 1019.01 1018.95 1018.78 1018.53 1018.23 1017.91 1017.59 1017.31 1017.07 1016.88 1016.72 1016.57 1016.43 1016.28 1016.09 1015.89 1015.66 1015.42
1006.97 1007.74 1008.56 1009.33 1009.99 1010.47 1010.77 1010.91 1010.94 1010.94 1011.01 1011.23 1011.62 1012.20 1012.96 1013.83 1014.73 1015.59 1016.34 1016.94 1017.39 1017.69 1017.89 1018.04 1018.16 1018.31 1018.49 1018.69 1018.89 1019.06 1019.16 1019.18 1019.09 1018.90 1018.64 1018.32 1017.98 1017.66 1017.36 1017.11 1016.90 1016.71 1016.54 1016.36 1016.16 1015.92 1015.66 1015.37 1015.08
1006.94 1007.64 1008.38 1009.07 1009.65 1010.09 1010.38 1010.53 1010.60 1010.67 1010.82 1011.10 1011.56 1012.20 1013.00 1013.91 1014.84 1015.73 1016.52 1017.17 1017.66 1018.01 1018.24 1018.41 1018.54 1018.68 1018.82 1018.97 1019.12 1019.23 1019.28 1019.24 1019.12 1018.91 1018.63 1018.31 1017.97 1017.66 1017.37 1017.13 1016.91 1016.72 1016.52 1016.31 1016.05 1015.76 1015.42 1015.06 1014.69
1006.92 1007.50 1008.11 1008.69 1009.20 1009.60 1009.89 1010.09 1010.24 1010.41 1010.67 1011.05 1011.59 1012.30 1013.14 1014.06 1015.01 1015.91 1016.72 1017.39 1017.91 1018.30 1018.57 1018.76 1018.90 1019.02 1019.13 1019.24 1019.32 1019.36 1019.33 1019.24 1019.07 1018.83 1018.54 1018.22 1017.91 1017.62 1017.37 1017.15 1016.95 1016.76 1016.56 1016.31 1016.01 1015.65 1015.24 1014.80 1014.34
Thickness
5806 5809 5813 5811 5798 5795 5805 5833 5850 5830 5824 5836 5838 5839 5825 5813 5800 5782 5802 5812 5809 5803 5796 5789 5786 5785 5782 5778 5777 5775 5774 5773 5771 5770 5768 5767 5766 5765 5764 5762 5761 5760 5758 5756 5755 5754 5753 5751 5751
5808 5814 5811 5802 5790 5787 5820 5849 5832 5823 5827 5828 5834 5836 5824 5812 5813 5805 5804 5806 5804 5798 5791 5784 5780 5779 5777 5774 5772 5771 5770 5769 5768 5766 5764 5762 5760 5759 5757 5756 5755 5754 5755 5754 5752 5750 5750 5748 5747
5806 5815 5801 5799 5795 5804 5834 5847 5832 5834 5835 5831 5826 5828 5816 5805 5809 5805 5803 5803 5800 5792 5784 5779 5777 5775 5772 5769 5768 5767 5766 5765 5765 5763 5761 5759 5756 5754 5753 5752 5751 5749 5749 5748 5746 5745 5745 5743 5742
5808 5808 5804 5802 5808 5837 5841 5843 5836 5831 5829 5835 5830 5812 5810 5813 5811 5806 5803 5801 5794 5787 5781 5775 5772 5770 5768 5765 5764 5762 5761 5761 5760 5759 5756 5754 5753 5751 5749 5748 5747 5745 5744 5743 5741 5739 5738 5737 5736
5809 5802 5793 5800 5828 5841 5844 5843 5838 5824 5822 5828 5821 5799 5794 5809 5812 5806 5803 5799 5791 5784 5778 5771 5768 5766 5764 5762 5760 5759 5758 5757 5756 5755 5752 5749 5747 5746 5744 5743 5741 5740 5739 5738 5735 5732 5732 5732 5731
5804 5803 5794 5810 5830 5835 5840 5844 5840 5828 5824 5828 5818 5801 5793 5805 5805 5804 5804 5799 5793 5785 5777 5769 5765 5762 5760 5759 5757 5755 5754 5753 5751 5749 5747 5745 5743 5742 5740 5739 5737 5735 5733 5732 5729 5727 5726 5726 5725
5800 5798 5803 5830 5828 5828 5838 5847 5839 5830 5826 5829 5831 5800 5795 5800 5805 5809 5805 5799 5795 5789 5781 5772 5765 5760 5757 5756 5754 5752 5750 5748 5747 5744 5742 5740 5739 5738 5736 5734 5733 5730 5729 5726 5724 5721 5720 5719 5719
5818 5806 5812 5837 5828 5827 5842 5845 5844 5835 5825 5838 5838 5804 5791 5800 5809 5811 5806 5799 5793 5789 5780 5773 5768 5762 5757 5753 5751 5748 5746 5744 5742 5740 5737 5735 5734 5733 5731 5729 5727 5725 5723 5721 5719 5717 5715 5715 5715
5826 5802 5803 5832 5830 5830 5844 5839 5840 5846 5835 5835 5832 5817 5810 5809 5811 5807 5801 5795 5790 5782 5778 5778 5772 5764 5759 5754 5749 5747 5744 5741 5738 5735 5732 5730 5729 5727 5725 5722 5720 5717 5717 5716 5714 5713 5712 5711 5711
5820 5799 5820 5841 5845 5841 5843 5840 5837 5835 5828 5825 5819 5811 5807 5804 5805 5802 5795 5786 5781 5779 5777 5778 5771 5766 5762 5756 5750 5747 5745 5740 5737 5735 5731 5727 5725 5723 5721 5717 5714 5712 5711 5710 5709 5708 5706 5705 5706
5822 5816 5830 5841 5847 5845 5842 5840 5842 5831 5815 5819 5811 5801 5799 5795 5797 5801 5794 5785 5779 5779 5777 5778 5775 5769 5763 5758 5753 5750 5746 5740 5736 5732 5728 5725 5722 5719 5717 5713 5709 5708 5706 5704 5704 5703 5702 5703 5703
5819 5827 5829 5836 5841 5836 5840 5841 5836 5832 5826 5832 5825 5809 5801 5798 5798 5800 5791 5790 5783 5782 5778 5774 5771 5765 5760 5756 5750 5746 5743 5738 5732 5727 5724 5722 5719 5717 5716 5712 5710 5707 5705 5703 5701 5701 5701 5698 5699
5818 5821 5830 5832 5832 5833 5836 5835 5832 5832 5842 5840 5832 5819 5805 5803 5804 5804 5799 5795 5789 5781 5774 5769 5764 5755 5750 5746 5744 5741 5736 5733 5727 5724 5719 5717 5715 5713 5710 5707 5704 5703 5702 5699 5695 5694 5693 5691 5690
5822 5821 5828 5826 5825 5830 5821 5822 5826 5828 5840 5837 5828 5819 5812 5803 5799 5794 5792 5788 5785 5778 5770 5762 5754 5748 5743 5739 5735 5732 5727 5723 5721 5717 5713 5710 5709 5706 5702 5697 5694 5693 5692 5689 5686 5686 5683 5681 5681
5818 5809 5808 5813 5818 5822 5818 5805 5814 5835 5832 5828 5824 5821 5811 5803 5798 5792 5790 5787 5780 5772 5763 5754 5747 5742 5738 5735 5732 5727 5722 5717 5713 5706 5703 5701 5699 5696 5693 5691 5689 5687 5686 5682 5677 5674 5673 5670 5669
5802 5788 5780 5801 5815 5819 5803 5783 5812 5833 5828 5819 5818 5818 5809 5801 5797 5794 5789 5782 5772 5761 5748 5740 5738 5732 5730 5729 5727 5722 5718 5712 5707 5701 5697 5693 5690 5686 5683 5681 5680 5679 5676 5672 5668 5666 5663 5660 5658
5778 5770 5775 5795 5819 5819 5802 5786 5809 5820 5817 5811 5813 5815 5805 5793 5788 5781 5775 5764 5756 5741 5725 5712 5717 5718 5718 5719 5719 5715 5710 5706 5701 5696 5692 5686 5680 5676 5673 5670 5670 5668 5665 5661 5657 5654 5649 5646 5643
5765 5776 5783 5792 5816 5815 5799 5793 5802 5806 5803 5802 5805 5807 5794 5777 5770 5770 5764 5749 5740 5727 5711 5702 5702 5704 5705 5707 5707 5703 5701 5698 5694 5690 5684 5677 5669 5664 5661 5659 5657 5656 5654 5649 5644 5639 5637 5633 5629
5780 5782 5786 5806 5823 5808 5790 5785 5789 5791 5791 5791 5792 5790 5780 5767 5766 5763 5754 5741 5732 5721 5706 5694 5691 5690 5692 5693 5691 5687 5685 5685 5682 5678 5671 5664 5658 5654 5650 5646 5643 5641 5638 5634 5630 5626 5622 5619 5618
5780 5775 5779 5795 5810 5797 5781 5778 5779 5778 5777 5778 5776 5772 5768 5759 5754 5750 5743 5733 5725 5713 5701 5692 5685 5681 5681 5679 5677 5674 5671 5669 5665 5660 5653 5647 5643 5641 5639 5635 5630 5627 5623 5620 5615 5609 5603 5602 5601
5773 5768 5771 5778 5795 5793 5774 5764 5765 5767 5767 5765 5766 5763 5757 5748 5740 5736 5731 5725 5717 5706 5697 5689 5681 5676 5673 5670 5668 5663 5659 5654 5648 5642 5637 5631 5626 5626 5624 5619 5616 5613 5609 5604 5598 5592 5587 5583 5583
5758 5773 5775 5775 5771 5771 5769 5746 5753 5751 5747 5748 5749 5747 5740 5733 5727 5722 5717 5711 5706 5699 5693 5685 5678 5671 5666 5662 5657 5650 5642 5635 5631 5626 5623 5620 5616 5611 5606 5601 5597 5593 5588 5583 5579 5574 5566 5561 5561
5765 5780 5777 5776 5766 5761 5770 5755 5751 5743 5729 5729 5730 5729 5725 5720 5714 5707 5703 5698 5694 5690 5683 5676 5670 5662 5656 5651 5644 5637 5629 5624 5620 5616 5612 5608 5603 5596 5590 5584 5578 5572 5566 5560 5555 5551 5546 5541 5537
5774 5771 5769 5767 5758 5737 5754 5753 5746 5735 5725 5720 5719 5718 5714 5709 5703 5697 5693 5688 5682 5677 5670 5663 5656 5650 5644 5638 5631 5624 5617 5612 5608 5603 5598 5593 5586 5580 5575 5568 5560 5553 5545 5537 5530 5524 5521 5516 5513
5765 5747 5727 5721 5723 5732 5761 5755 5755 5745 5734 5726 5716 5711 5708 5703 5696 5689 5682 5675 5668 5662 5656 5650 5643 5637 5632 5625 5618 5611 5605 5599 5594 5588 5581 5574 5569 5563 5557 5548 5541 5533 5524 5514 5507 5501 5497 5495 5493
5752 5743 5719 5710 5718 5735 5753 5735 5724 5741 5734 5726 5716 5710 5704 5699 5692 5682 5673 5665 5657 5650 5643 5637 5631 5625 5619 5612 5605 5599 5593 5586 5579 5570 5561 5554 5547 5541 5533 5527 5519 5512 5503 5496 5489 5484 5482 5482 5481
5747 5741 5748 5733 5731 5726 5732 5710 5705 5723 5716 5711 5707 5702 5697 5691 5683 5673 5665 5655 5647 5638 5631 5625 5618 5612 5606 5599 5593 5586 5579 5570 5561 5551 5541 5531 5522 5516 5511 5506 5501 5495 5490 5484 5479 5476 5475 5474 5473
5756 5752 5744 5728 5709 5707 5728 5724 5701 5703 5700 5699 5696 5692 5687 5681 5674 5664 5655 5646 5638 5630 5623 5615 5608 5600 5594 5588 5580 5573 5563 5554 5543 5534 5522 5512 5503 5498 5495 5492 5489 5486 5482 5478 5475 5472 5470 5469 5467
5744 5738 5734 5733 5732 5713 5706 5716 5721 5708 5702 5693 5687 5684 5679 5672 5664 5655 5646 5638 5629 5621 5612 5603 5595 5587 5580 5573 5566 5557 5547 5537 5528 5520 5511 5502 5495 5490 5487 5484 5481 5479 5476 5474 5471 5468 5467 5465 5463
5747 5741 5732 5711 5712 5720 5713 5693 5724 5713 5704 5691 5681 5676 5672 5664 5656 5647 5637 5628 5617 5607 5598 5590 5581 5574 5566 5558 5550 5541 5531 5524 5517 5511 5504 5498 5492 5487 5483 5480 5477 5474 5471 5467 5464 5461 5459 5457 5457